Time,TemperatureF,DewpointF,PressureIn,WindDirection,WindDirectionDegrees,WindSpeedMPH,WindSpeedGustMPH,Humidity,HourlyPrecipIn,Conditions,Clouds,dailyrainin,SoftwareType,DateUTC
2013-01-13 00:03:00,9.0,9.0,30.14,West,280,6.0,-999.0,100,-99.99,,,-99.99,,2013-01-13 06:03:00,
2013-01-13 00:12:00,9.0,9.0,30.14,West,280,6.0,-999.0,100,-99.99,,,-99.99,,2013-01-13 06:12:00,
2013-01-13 01:22:00,9.0,9.0,30.14,WNW,300,7.0,-999.0,100,-99.99,,,-99.99,,2013-01-13 07:22:00,
2013-01-13 01:33:00,9.0,9.0,30.14,WNW,300,8.0,-999.0,100,-99.99,,,-99.99,,2013-01-13 07:33:00,
2013-01-13 01:42:00,9.0,9.0,30.14,WNW,300,8.0,-999.0,100,-99.99,,,-99.99,,2013-01-13 07:42:00,
2013-01-13 01:52:00,9.0,9.0,30.14,WNW,300,8.0,-999.0,100,-99.99,,,-99.99,,2013-01-13 07:52:00,
2013-01-13 02:02:00,9.0,9.0,30.14,WNW,300,8.0,-999.0,100,-99.99,,,-99.99,,2013-01-13 08:02:00,
2013-01-13 02:12:00,9.0,9.0,30.14,WNW,300,8.0,-999.0,100,-99.99,,,-99.99,,2013-01-13 08:12:00,
2013-01-13 02:22:00,9.0,9.0,30.14,WNW,300,9.0,-999.0,100,-99.99,,,-99.99,,2013-01-13 08:22:00,
2013-01-13 02:32:00,9.0,7.0,30.14,WNW,300,9.0,-999.0,92,-99.99,,,-99.99,,2013-01-13 08:32:00,
2013-01-13 02:42:00,9.0,7.0,30.14,WNW,300,9.0,-999.0,92,-99.99,,,-99.99,,2013-01-13 08:42:00,
2013-01-13 02:53:00,9.0,7.0,30.14,WNW,300,9.0,-999.0,92,-99.99,,,-99.99,,2013-01-13 08:53:00,
2013-01-13 03:02:00,9.0,7.0,30.14,WNW,300,9.0,-999.0,92,-99.99,,,-99.99,,2013-01-13 09:02:00,
2013-01-13 03:12:00,9.0,7.0,30.14,WNW,300,9.0,-999.0,92,-99.99,,,-99.99,,2013-01-13 09:12:00,
2013-01-13 03:22:00,9.0,7.0,30.14,WNW,300,9.0,-999.0,92,-99.99,,,-99.99,,2013-01-13 09:22:00,
2013-01-13 03:32:00,9.0,7.0,30.14,NW,310,12.0,-999.0,92,-99.99,,,-99.99,,2013-01-13 09:32:00,
2013-01-13 03:42:00,9.0,7.0,30.14,NW,310,12.0,-999.0,92,-99.99,,,-99.99,,2013-01-13 09:42:00,
2013-01-13 03:52:00,9.0,7.0,30.14,NW,310,12.0,-999.0,92,-99.99,,,-99.99,,2013-01-13 09:52:00,
2013-01-13 04:02:00,9.0,7.0,30.14,NW,310,12.0,-999.0,92,-99.99,,,-99.99,,2013-01-13 10:02:00,
2013-01-13 04:12:00,9.0,7.0,30.14,NW,310,12.0,-999.0,92,-99.99,,,-99.99,,2013-01-13 10:12:00,
2013-01-13 04:22:00,7.0,7.0,30.14,WNW,300,9.0,-999.0,100,-99.99,,,-99.99,,2013-01-13 10:22:00,
2013-01-13 04:32:00,7.0,7.0,30.14,WNW,300,9.0,-999.0,100,-99.99,,,-99.99,,2013-01-13 10:32:00,
2013-01-13 04:42:00,7.0,7.0,30.14,WNW,300,9.0,-999.0,100,-99.99,,,-99.99,,2013-01-13 10:42:00,
2013-01-13 04:52:00,7.0,5.0,30.14,West,270,8.0,-999.0,92,-99.99,,,-99.99,,2013-01-13 10:52:00,
2013-01-13 05:02:00,7.0,5.0,30.14,West,270,8.0,-999.0,92,-99.99,,,-99.99,,2013-01-13 11:02:00,
2013-01-13 05:12:00,7.0,5.0,30.14,West,270,8.0,-999.0,92,-99.99,,,-99.99,,2013-01-13 11:12:00,
2013-01-13 05:22:00,7.0,5.0,30.14,West,270,8.0,-999.0,92,-99.99,,,-99.99,,2013-01-13 11:22:00,
2013-01-13 05:32:00,7.0,5.0,30.15,West,280,8.0,-999.0,92,-99.99,,,-99.99,,2013-01-13 11:32:00,
2013-01-13 05:42:00,7.0,5.0,30.15,West,280,8.0,-999.0,92,-99.99,,,-99.99,,2013-01-13 11:42:00,
2013-01-13 05:53:00,7.0,5.0,30.15,West,280,8.0,-999.0,92,-99.99,,,-99.99,,2013-01-13 11:53:00,
2013-01-13 06:03:00,7.0,5.0,30.15,West,280,8.0,-999.0,92,-99.99,,,-99.99,,2013-01-13 12:03:00,
2013-01-13 06:12:00,7.0,5.0,30.15,West,280,8.0,-999.0,92,-99.99,,,-99.99,,2013-01-13 12:12:00,
2013-01-13 06:22:00,7.0,3.0,30.16,West,280,7.0,-999.0,84,-99.99,,,-99.99,,2013-01-13 12:22:00,
2013-01-13 06:33:00,7.0,3.0,30.16,West,280,7.0,-999.0,84,-99.99,,,-99.99,,2013-01-13 12:33:00,
2013-01-13 06:42:00,7.0,3.0,30.16,West,280,7.0,-999.0,84,-99.99,,,-99.99,,2013-01-13 12:42:00,
2013-01-13 06:53:00,7.0,3.0,30.16,West,280,7.0,-999.0,84,-99.99,,,-99.99,,2013-01-13 12:53:00,
2013-01-13 07:02:00,7.0,3.0,30.16,West,280,7.0,-999.0,84,-99.99,,,-99.99,,2013-01-13 13:02:00,
2013-01-13 07:22:00,7.0,5.0,30.18,West,280,12.0,-999.0,92,-99.99,,,-99.99,,2013-01-13 13:22:00,
2013-01-13 07:33:00,7.0,5.0,30.18,West,280,12.0,-999.0,92,-99.99,,,-99.99,,2013-01-13 13:33:00,
2013-01-13 07:43:00,7.0,5.0,30.18,West,280,12.0,-999.0,92,-99.99,,,-99.99,,2013-01-13 13:43:00,
2013-01-13 07:53:00,7.0,5.0,30.18,West,280,12.0,-999.0,92,-99.99,,,-99.99,,2013-01-13 13:53:00,
2013-01-13 08:03:00,7.0,5.0,30.18,West,280,12.0,-999.0,92,-99.99,,,-99.99,,2013-01-13 14:03:00,
2013-01-13 08:12:00,7.0,5.0,30.18,West,280,12.0,-999.0,92,-99.99,,,-99.99,,2013-01-13 14:12:00,
2013-01-13 08:53:00,7.0,7.0,30.21,West,280,12.0,-999.0,100,-99.99,,,-99.99,,2013-01-13 14:53:00,
2013-01-13 09:03:00,7.0,7.0,30.21,West,280,12.0,-999.0,100,-99.99,,,-99.99,,2013-01-13 15:03:00,
2013-01-13 09:12:00,7.0,7.0,30.21,West,280,12.0,-999.0,100,-99.99,,,-99.99,,2013-01-13 15:12:00,
2013-01-13 09:23:00,9.0,7.0,30.21,WNW,300,12.0,-999.0,92,-99.99,,,-99.99,,2013-01-13 15:23:00,
2013-01-13 09:33:00,10.0,9.0,30.22,WNW,300,12.0,-999.0,92,-99.99,,,-99.99,,2013-01-13 15:33:00,
2013-01-13 09:43:00,10.0,9.0,30.22,WNW,300,12.0,-999.0,92,-99.99,,,-99.99,,2013-01-13 15:43:00,
2013-01-13 09:53:00,10.0,9.0,30.22,WNW,300,12.0,-999.0,92,-99.99,,,-99.99,,2013-01-13 15:53:00,
2013-01-13 10:03:00,10.0,9.0,30.22,WNW,300,12.0,-999.0,92,-99.99,,,-99.99,,2013-01-13 16:03:00,
2013-01-13 10:12:00,10.0,9.0,30.22,WNW,300,12.0,-999.0,92,-99.99,,,-99.99,,2013-01-13 16:12:00,
2013-01-13 10:22:00,12.0,10.0,30.23,WNW,300,9.0,-999.0,92,-99.99,,,-99.99,,2013-01-13 16:22:00,
2013-01-13 10:33:00,14.0,10.0,30.23,WNW,290,10.0,-999.0,85,-99.99,,,-99.99,,2013-01-13 16:33:00,
2013-01-13 10:43:00,14.0,10.0,30.23,WNW,290,10.0,-999.0,85,-99.99,,,-99.99,,2013-01-13 16:43:00,
2013-01-13 10:53:00,16.0,10.0,30.23,WNW,300,12.0,-999.0,78,-99.99,,,-99.99,,2013-01-13 16:53:00,
2013-01-13 11:03:00,16.0,10.0,30.23,WNW,300,12.0,-999.0,78,-99.99,,,-99.99,,2013-01-13 17:03:00,
2013-01-13 11:12:00,16.0,10.0,30.23,WNW,300,12.0,-999.0,78,-99.99,,,-99.99,,2013-01-13 17:12:00,
2013-01-13 11:22:00,16.0,10.0,30.23,WNW,300,10.0,-999.0,78,-99.99,,,-99.99,,2013-01-13 17:22:00,
2013-01-13 11:33:00,18.0,12.0,30.23,WNW,300,10.0,-999.0,78,-99.99,,,-99.99,,2013-01-13 17:33:00,
2013-01-13 11:43:00,18.0,12.0,30.23,WNW,300,10.0,-999.0,78,-99.99,,,-99.99,,2013-01-13 17:43:00,
2013-01-13 11:53:00,18.0,12.0,30.23,WNW,300,10.0,-999.0,78,-99.99,,,-99.99,,2013-01-13 17:53:00,
2013-01-13 12:03:00,18.0,12.0,30.23,WNW,300,10.0,-999.0,78,-99.99,,,-99.99,,2013-01-13 18:03:00,
2013-01-13 12:12:00,18.0,12.0,30.23,WNW,300,10.0,-999.0,78,-99.99,,,-99.99,,2013-01-13 18:12:00,
2013-01-13 12:22:00,18.0,12.0,30.21,WNW,300,13.0,-999.0,78,-99.99,,,-99.99,,2013-01-13 18:22:00,
2013-01-13 12:33:00,19.0,12.0,30.19,NW,310,13.0,-999.0,73,-99.99,,,-99.99,,2013-01-13 18:33:00,
2013-01-13 12:43:00,19.0,12.0,30.19,NW,310,13.0,-999.0,73,-99.99,,,-99.99,,2013-01-13 18:43:00,
2013-01-13 12:53:00,19.0,12.0,30.19,NW,310,13.0,-999.0,73,-99.99,,,-99.99,,2013-01-13 18:53:00,
2013-01-13 13:02:00,19.0,12.0,30.19,NW,310,13.0,-999.0,73,-99.99,,,-99.99,,2013-01-13 19:02:00,
2013-01-13 13:12:00,19.0,12.0,30.19,NW,310,13.0,-999.0,73,-99.99,,,-99.99,,2013-01-13 19:12:00,
2013-01-13 14:23:00,21.0,14.0,30.17,West,280,12.0,-999.0,73,-99.99,,,-99.99,,2013-01-13 20:23:00,
2013-01-13 14:33:00,21.0,14.0,30.17,WNW,290,14.0,18.0,73,-99.99,,,-99.99,,2013-01-13 20:33:00,
2013-01-13 14:43:00,21.0,14.0,30.17,WNW,290,14.0,18.0,73,-99.99,,,-99.99,,2013-01-13 20:43:00,
2013-01-13 14:53:00,23.0,14.0,30.18,West,280,12.0,-999.0,67,-99.99,,,-99.99,,2013-01-13 20:53:00,
2013-01-13 15:03:00,23.0,14.0,30.18,West,280,12.0,-999.0,67,-99.99,,,-99.99,,2013-01-13 21:03:00,
2013-01-13 15:12:00,23.0,14.0,30.18,West,280,12.0,-999.0,67,-99.99,,,-99.99,,2013-01-13 21:12:00,
2013-01-13 15:23:00,23.0,14.0,30.18,West,280,12.0,-999.0,67,-99.99,,,-99.99,,2013-01-13 21:23:00,
2013-01-13 15:33:00,23.0,14.0,30.18,West,280,12.0,-999.0,67,-99.99,,,-99.99,,2013-01-13 21:33:00,
2013-01-13 15:53:00,21.0,16.0,30.19,NW,310,12.0,-999.0,79,-99.99,,,-99.99,,2013-01-13 21:53:00,
2013-01-13 16:02:00,21.0,16.0,30.19,NW,310,12.0,-999.0,79,-99.99,,,-99.99,,2013-01-13 22:02:00,
2013-01-13 16:12:00,21.0,16.0,30.19,NW,310,12.0,-999.0,79,-99.99,,,-99.99,,2013-01-13 22:12:00,
2013-01-13 16:22:00,21.0,16.0,30.20,NW,310,10.0,-999.0,79,-99.99,,,-99.99,,2013-01-13 22:22:00,
2013-01-13 16:33:00,21.0,16.0,30.20,WNW,300,12.0,-999.0,79,-99.99,,,-99.99,,2013-01-13 22:33:00,
2013-01-13 16:43:00,21.0,16.0,30.20,WNW,300,12.0,-999.0,79,-99.99,,,-99.99,,2013-01-13 22:43:00,
2013-01-13 16:52:00,21.0,16.0,30.20,WNW,300,12.0,-999.0,79,-99.99,,,-99.99,,2013-01-13 22:52:00,
2013-01-13 17:02:00,21.0,16.0,30.20,WNW,300,12.0,-999.0,79,-99.99,,,-99.99,,2013-01-13 23:02:00,
2013-01-13 17:12:00,21.0,16.0,30.20,WNW,300,12.0,-999.0,79,-99.99,,,-99.99,,2013-01-13 23:12:00,
2013-01-13 17:22:00,21.0,14.0,30.21,WNW,300,7.0,-999.0,73,-99.99,,,-99.99,,2013-01-13 23:22:00,
2013-01-13 17:33:00,21.0,14.0,30.21,WNW,300,7.0,-999.0,73,-99.99,,,-99.99,,2013-01-13 23:33:00,
2013-01-13 17:43:00,21.0,14.0,30.21,WNW,300,7.0,-999.0,73,-99.99,,,-99.99,,2013-01-13 23:43:00,
2013-01-13 17:53:00,19.0,14.0,30.21,WNW,290,6.0,-999.0,79,-99.99,,,-99.99,,2013-01-13 23:53:00,
2013-01-13 18:02:00,19.0,14.0,30.21,WNW,290,6.0,-999.0,79,-99.99,,,-99.99,,2013-01-14 00:02:00,
2013-01-13 18:12:00,19.0,14.0,30.21,WNW,290,6.0,-999.0,79,-99.99,,,-99.99,,2013-01-14 00:12:00,
2013-01-13 18:22:00,18.0,12.0,30.22,West,270,5.0,-999.0,78,-99.99,,,-99.99,,2013-01-14 00:22:00,
2013-01-13 18:32:00,18.0,12.0,30.22,West,270,5.0,-999.0,78,-99.99,,,-99.99,,2013-01-14 00:32:00,
2013-01-13 18:43:00,18.0,12.0,30.22,West,270,5.0,-999.0,78,-99.99,,,-99.99,,2013-01-14 00:43:00,
2013-01-13 18:53:00,18.0,12.0,30.22,West,270,5.0,-999.0,78,-99.99,,,-99.99,,2013-01-14 00:53:00,
2013-01-13 19:03:00,18.0,12.0,30.22,West,270,5.0,-999.0,78,-99.99,,,-99.99,,2013-01-14 01:03:00,
2013-01-13 19:22:00,14.0,10.0,30.22,WNW,300,6.0,-999.0,85,-99.99,,,-99.99,,2013-01-14 01:22:00,
2013-01-13 19:33:00,12.0,10.0,30.22,WNW,300,8.0,-999.0,92,-99.99,,,-99.99,,2013-01-14 01:33:00,
2013-01-13 19:42:00,12.0,10.0,30.22,WNW,300,8.0,-999.0,92,-99.99,,,-99.99,,2013-01-14 01:42:00,
2013-01-13 19:53:00,14.0,10.0,30.22,WNW,300,7.0,-999.0,85,-99.99,,,-99.99,,2013-01-14 01:53:00,
2013-01-13 20:02:00,14.0,10.0,30.22,WNW,300,7.0,-999.0,85,-99.99,,,-99.99,,2013-01-14 02:02:00,
2013-01-13 20:12:00,14.0,10.0,30.22,WNW,300,7.0,-999.0,85,-99.99,,,-99.99,,2013-01-14 02:12:00,
2013-01-13 20:22:00,14.0,10.0,30.22,WNW,300,7.0,-999.0,85,-99.99,,,-99.99,,2013-01-14 02:22:00,
2013-01-13 20:32:00,12.0,10.0,30.23,WNW,290,7.0,-999.0,92,-99.99,,,-99.99,,2013-01-14 02:32:00,
2013-01-13 20:43:00,12.0,10.0,30.23,WNW,290,7.0,-999.0,92,-99.99,,,-99.99,,2013-01-14 02:43:00,
2013-01-13 20:53:00,10.0,9.0,30.23,WNW,300,7.0,-999.0,92,-99.99,,,-99.99,,2013-01-14 02:53:00,
2013-01-13 21:02:00,10.0,9.0,30.23,WNW,300,7.0,-999.0,92,-99.99,,,-99.99,,2013-01-14 03:02:00,
2013-01-13 21:12:00,10.0,9.0,30.23,WNW,300,7.0,-999.0,92,-99.99,,,-99.99,,2013-01-14 03:12:00,
2013-01-13 21:22:00,9.0,9.0,30.25,West,270,5.0,-999.0,100,-99.99,,,-99.99,,2013-01-14 03:22:00,
2013-01-13 21:32:00,9.0,9.0,30.25,West,270,6.0,-999.0,100,-99.99,,,-99.99,,2013-01-14 03:32:00,
2013-01-13 21:43:00,9.0,9.0,30.25,West,270,6.0,-999.0,100,-99.99,,,-99.99,,2013-01-14 03:43:00,
2013-01-13 21:53:00,9.0,7.0,30.26,West,270,3.0,-999.0,92,-99.99,,,-99.99,,2013-01-14 03:53:00,
2013-01-13 22:02:00,9.0,7.0,30.26,West,270,3.0,-999.0,92,-99.99,,,-99.99,,2013-01-14 04:02:00,
2013-01-13 22:12:00,9.0,7.0,30.26,West,270,3.0,-999.0,92,-99.99,,,-99.99,,2013-01-14 04:12:00,
2013-01-13 22:22:00,9.0,7.0,30.26,West,270,3.0,-999.0,92,-99.99,,,-99.99,,2013-01-14 04:22:00,
2013-01-13 22:32:00,9.0,7.0,30.26,West,270,3.0,-999.0,92,-99.99,,,-99.99,,2013-01-14 04:32:00,
2013-01-13 22:53:00,9.0,7.0,30.27,WSW,250,3.0,-999.0,92,-99.99,,,-99.99,,2013-01-14 04:53:00,
2013-01-13 23:04:00,9.0,7.0,30.27,WSW,250,3.0,-999.0,92,-99.99,,,-99.99,,2013-01-14 05:04:00,
2013-01-13 23:12:00,9.0,7.0,30.27,WSW,250,3.0,-999.0,92,-99.99,,,-99.99,,2013-01-14 05:12:00,
2013-01-13 23:22:00,7.0,7.0,30.27,West,260,5.0,-999.0,100,-99.99,,,-99.99,,2013-01-14 05:22:00,
2013-01-13 23:32:00,7.0,7.0,30.27,WNW,290,7.0,-999.0,100,-99.99,,,-99.99,,2013-01-14 05:32:00,
2013-01-13 23:43:00,7.0,7.0,30.27,WNW,290,7.0,-999.0,100,-99.99,,,-99.99,,2013-01-14 05:43:00,
2013-01-13 23:53:00,7.0,7.0,30.27,WNW,290,7.0,-999.0,100,-99.99,,,-99.99,,2013-01-14 05:53:00,